[[{"header":{"parameterUnit":"m.s-1","parameterCategory":1,"la1":30.2991,"la2":30.254,"lo1":-89.0895,"lo2":-89.0444,"dy":0.0017,"dx":0.0017,"nx":28,"ny":28,"refTime":"2023-10-15T03:00:00:Z","depth":0,"parameterNumber":2,"parameterNumberName":"U-component_of_WINDS"},"data":[0,0,0,0,0,0,0,0,0,0,0,0,0,0,0,0,0,0,0,0,0,0,0,0,0,0,0,0,0,0,0,0,0,0,0,0,0,0,0,0,0,0,0,0,0,0,0,0,0,0,0,0,0,0,0,0,0,0,2.3536,2.3536,0,2.3509,2.3508,2.3508,2.3467,2.3466,2.3465,2.3465,2.3435,2.3435,2.3435,0,0,0,0,0,0,0,0,0,0,0,0,0,2.3554,2.3554,2.3537,2.3536,2.3536,2.3509,2.3508,2.3508,2.3467,2.3466,2.3465,2.3464,2.3435,2.3435,2.3435,0,0,0,0,0,0,0,0,0,0,0,0,0,2.3538,2.3554,2.3537,2.3512,2.351,2.3509,2.3508,2.3508,2.3467,2.3466,2.3465,2.3464,2.3435,2.3435,2.3435,2.3455,0,0,2.3434,2.3434,0,0,0,0,0,0,0,0,2.3539,2.3538,2.3516,2.3514,2.3511,2.349,2.3504,2.349,2.3467,2.3483,2.3465,2.3463,2.3454,2.3452,2.3449,2.3454,2.3453,2.3434,2.3434,2.3434,2.3434,0,0,0,0,0,0,0,2.354,2.3539,2.3525,2.3516,2.3513,2.3502,2.3499,2.3501,2.3475,2.3482,2.3479,2.3476,2.3452,2.345,2.3448,2.3452,2.3434,2.3434,2.3434,2.3434,2.3473,2.3474,0,0,0,0,0,0,2.3545,2.354,2.3526,2.3525,2.3523,2.3503,2.3499,2.3498,2.3475,2.347,2.3477,2.3474,2.345,2.3449,2.3447,2.3469,2.3434,2.3434,2.3434,2.3472,2.3473,2.3474,0,0,0,0,0,0,2.3546,2.3544,2.3527,2.3531,2.3528,2.3504,2.3503,2.3498,2.3495,2.3471,2.3466,2.3479,2.345,2.3447,2.3454,2.3468,2.3434,2.3434,2.347,2.3472,2.3474,2.3514,0,0,0,0,0,0,2.3546,2.3545,2.3552,2.3532,2.3528,2.3535,2.3504,2.3498,2.3495,2.3491,2.3472,2.3467,2.3449,2.3454,2.3454,2.3467,2.3433,2.3469,2.3471,2.3473,2.3512,2.3517,2.3522,0,0,0,0,0,2.3547,2.3565,2.3553,2.3551,2.3537,2.3535,2.3533,2.3512,2.3496,2.3503,2.3489,2.3468,2.3467,2.3455,2.3454,2.3468,2.3468,2.347,2.3473,2.3509,2.3516,2.3522,0,0,0,0,0,0,2.3586,2.3561,2.3548,2.3559,2.355,2.3528,2.3537,2.352,2.3514,2.351,2.3484,2.348,2.3489,2.3479,2.3467,2.3487,2.3464,2.3467,2.3492,2.3499,2.3504,2.3505,2.3433,0,0,0,0,0,2.3597,2.3597,2.3575,2.3588,2.3584,2.3561,2.356,2.3544,2.3533,2.3528,2.3514,2.3504,2.3501,2.35,2.3496,2.3511,2.3506,2.352,2.3525,2.353,2.3531,2.3539,2.3544,2.3483,2.3482,2.3482,0,0,2.3617,2.3604,2.3606,2.3595,2.3586,2.3587,2.3558,2.356,2.3561,2.3529,2.3533,2.3523,2.351,2.3521,2.3525,2.3513,2.3548,2.3533,2.3537,2.3536,2.3542,2.3548,2.3553,2.3484,2.3484,2.3484,0,0,2.3655,2.3645,2.3654,2.3646,2.3633,2.3618,2.362,2.3602,2.3593,2.3598,2.3574,2.3575,2.3571,2.3562,2.3558,2.3595,2.3575,2.3594,2.3621,2.3628,2.3633,2.3637,2.365,2.3654,2.3597,2.3597,2.3597,0,2.3682,2.3683,2.3661,2.3665,2.3661,2.3633,2.3642,2.3635,2.3621,2.3619,2.3606,2.3601,2.3591,2.3599,2.3608,2.3606,2.3607,2.3595,2.3634,2.3638,2.3642,2.3653,2.3658,2.3599,2.3599,2.3599,2.3598,0,2.3716,2.3718,2.3726,2.3714,2.3712,2.3718,2.3697,2.3697,2.3683,2.367,2.3675,2.3662,2.3655,2.3656,2.3641,2.3663,2.3656,2.3639,2.3616,2.365,2.3661,2.3665,2.3602,2.3602,2.3601,2.36,0,0,2.3775,2.3753,2.3756,2.375,2.3735,2.3735,2.3741,2.3735,2.3735,2.3727,2.3731,2.3729,2.3714,2.3709,2.3694,2.37,2.373,2.3683,2.3682,2.3691,2.3752,2.3763,2.3769,2.3718,2.3719,2.3719,2.3753,0,2.3809,2.3817,2.3798,2.3811,2.3812,2.3786,2.3791,2.3782,2.3771,2.377,2.3757,2.3756,2.3737,2.3733,2.3739,2.3725,2.3741,2.3723,2.372,2.3721,2.3723,2.3774,2.3786,2.3818,2.3757,2.3757,2.3758,0,2.3848,2.3843,2.3856,2.384,2.384,2.3844,2.3838,2.3837,2.3827,2.3818,2.3814,2.3796,2.3801,2.378,2.3786,2.3773,2.3772,2.3765,2.3766,2.3763,2.374,2.3772,2.3827,2.3832,2.3764,2.3764,2.3763,0,2.3889,2.3885,2.3892,2.3888,2.3871,2.3875,2.3867,2.3856,2.3854,2.3848,2.3847,2.3842,2.3839,2.3836,2.3817,2.3804,2.3825,2.3803,2.3817,2.3818,2.3821,2.3821,2.3876,2.3823,2.3823,2.3823,2.3823,0,2.3927,2.3935,2.391,2.3914,2.3924,2.3903,2.3912,2.3903,2.3893,2.3895,2.3874,2.3876,2.3852,2.3852,2.3838,2.3845,2.3844,2.3837,2.3832,2.3837,2.3838,2.3834,2.3831,2.3824,2.3824,2.3824,2.3823,0,2.3973,2.3956,2.3962,2.3946,2.3942,2.3949,2.3934,2.3938,2.3926,2.3929,2.3928,2.3909,2.3908,2.389,2.3885,2.3876,2.3888,2.388,2.3891,2.3888,2.3903,2.3901,2.3956,2.3962,2.3907,2.3908,2.3908,0,2.3997,2.4003,2.3987,2.3987,2.3981,2.3982,2.398,2.396,2.3959,2.3948,2.3953,2.395,2.3947,2.3946,2.3932,2.3928,2.3919,2.3939,2.3918,2.3924,2.3918,2.3917,2.3918,2.3943,2.3943,2.3944,2.3944,0,2.4042,2.4034,2.4032,2.4027,2.4026,2.4021,2.4015,2.4017,2.3995,2.3995,2.3994,2.3991,2.3987,2.3984,2.3978,2.3971,2.3954,2.3952,2.3954,2.3958,2.3964,2.396,2.3901,2.395,2.3949,2.3949,2.3948,2.3948,2.4076,2.4081,2.407,2.4069,2.4063,2.4058,2.4061,2.405,2.4049,2.4043,2.4032,2.4033,2.4024,2.4014,2.4008,2.4008,2.3998,2.4003,2.4003,2.4004,2.4007,2.3966,2.4007,2.4007,2.4007,2.4007,2.4007,0,2.4119,2.4112,2.4111,2.4103,2.4103,2.4089,2.4082,2.4082,2.4083,2.4076,2.4073,2.4072,2.407,2.4057,2.4053,2.4056,2.4048,2.4056,2.4054,2.4053,2.4017,2.4014,2.4062,2.4062,2.4062,2.4062,2.4062,2.4062,2.4141,2.4147,2.4138,2.4142,2.4134,2.4135,2.4132,2.4128,2.4122,2.4122,2.4121,2.4112,2.4103,2.4099,2.4096,2.4092,2.4091,2.4101,2.4094,2.4061,2.4055,2.405,2.4047,2.4101,2.4101,2.413,2.413,2.413]},{"header":{"parameterUnit":"m.s-1","parameterCategory":1,"la1":30.2991,"la2":30.254,"lo1":-89.0895,"lo2":-89.0444,"dy":0.0017,"dx":0.0017,"nx":28,"ny":28,"refTime":"2023-10-15T03:00:00:Z","depth":0,"parameterNumber":3,"parameterNumberName":"V-component_of_WINDS"},"data":[0,0,0,0,0,0,0,0,0,0,0,0,0,0,0,0,0,0,0,0,0,0,0,0,0,0,0,0,0,0,0,0,0,0,0,0,0,0,0,0,0,0,0,0,0,0,0,0,0,0,0,0,0,0,0,0,0,0,-6.0619,-6.0621,0,-6.0812,-6.0815,-6.0817,-6.0757,-6.0752,-6.0748,-6.0745,-6.0936,-6.0944,-6.0953,0,0,0,0,0,0,0,0,0,0,0,0,0,-6.019,-6.0199,-6.0618,-6.0621,-6.0623,-6.0812,-6.0815,-6.0817,-6.0757,-6.0752,-6.0747,-6.0743,-6.0933,-6.0943,-6.0954,0,0,0,0,0,0,0,0,0,0,0,0,0,-6.0379,-6.0201,-6.0618,-6.0616,-6.0618,-6.0812,-6.0815,-6.0818,-6.0758,-6.0752,-6.0746,-6.074,-6.0929,-6.0942,-6.0955,-6.116,0,0,-6.0996,-6.1002,0,0,0,0,0,0,0,0,-6.0369,-6.0395,-6.0614,-6.0617,-6.0619,-6.0754,-6.0734,-6.0932,-6.076,-6.0705,-6.0744,-6.0737,-6.088,-6.0897,-6.0946,-6.1169,-6.1177,-6.0997,-6.1005,-6.1011,-6.1015,0,0,0,0,0,0,0,-6.0356,-6.0386,-6.0695,-6.0617,-6.062,-6.0604,-6.0624,-6.0771,-6.0824,-6.0709,-6.0705,-6.0729,-6.088,-6.0933,-6.095,-6.118,-6.0997,-6.1009,-6.1017,-6.1022,-6.1581,-6.1588,0,0,0,0,0,0,-6.0342,-6.0376,-6.0689,-6.0701,-6.0477,-6.0617,-6.0639,-6.0717,-6.0822,-6.0833,-6.0734,-6.0726,-6.0914,-6.0935,-6.0957,-6.1205,-6.1011,-6.1023,-6.1031,-6.1574,-6.1583,-6.159,0,0,0,0,0,0,-6.0333,-6.037,-6.0681,-6.0538,-6.0576,-6.063,-6.0718,-6.0724,-6.0778,-6.0841,-6.085,-6.078,-6.091,-6.0938,-6.1111,-6.121,-6.1029,-6.1041,-6.1566,-6.1577,-6.1586,-6.1702,0,0,0,0,0,0,-6.0321,-6.0368,-6.0447,-6.054,-6.0584,-6.0834,-6.0725,-6.0732,-6.0802,-6.0792,-6.0887,-6.0896,-6.0907,-6.1091,-6.1124,-6.1226,-6.1052,-6.1557,-6.1571,-6.1583,-6.1689,-6.1715,-6.1736,0,0,0,0,0,-6.0306,-6.047,-6.0452,-6.049,-6.0685,-6.084,-6.0865,-6.0876,-6.081,-6.089,-6.0931,-6.0893,-6.1194,-6.1109,-6.1146,-6.1253,-6.1551,-6.1567,-6.1582,-6.1679,-6.171,-6.1736,0,0,0,0,0,0,-6.0385,-6.0482,-6.0463,-6.0662,-6.0744,-6.0829,-6.0931,-6.0908,-6.1008,-6.0995,-6.1002,-6.1024,-6.1202,-6.1244,-6.1148,-6.1457,-6.1363,-6.1386,-6.1423,-6.1454,-6.1477,-6.1463,-6.1063,0,0,0,0,0,-6.0426,-6.0546,-6.0623,-6.0791,-6.0834,-6.0876,-6.0943,-6.0945,-6.1029,-6.1062,-6.1116,-6.1197,-6.1309,-6.1383,-6.149,-6.1694,-6.1714,-6.1786,-6.181,-6.1829,-6.1849,-6.1962,-6.1995,-6.1641,-6.1641,-6.164,0,0,-6.0511,-6.0579,-6.0653,-6.0809,-6.0873,-6.0995,-6.0905,-6.1037,-6.1128,-6.1081,-6.125,-6.1292,-6.1382,-6.1572,-6.1658,-6.1612,-6.1951,-6.1848,-6.1863,-6.1873,-6.1981,-6.2014,-6.2044,-6.1651,-6.1649,-6.1648,0,0,-6.0729,-6.0793,-6.0941,-6.1007,-6.1106,-6.1132,-6.1168,-6.1258,-6.1286,-6.1455,-6.1423,-6.1529,-6.1723,-6.179,-6.1849,-6.2094,-6.2063,-6.2128,-6.2252,-6.2361,-6.2389,-6.2414,-6.2503,-6.2535,-6.2148,-6.2148,-6.2149,0,-6.0822,-6.1008,-6.1019,-6.1157,-6.1226,-6.1192,-6.1342,-6.1405,-6.1532,-6.158,-6.1527,-6.1772,-6.183,-6.2036,-6.2096,-6.2144,-6.2185,-6.2118,-6.2385,-6.241,-6.2433,-6.2518,-6.2551,-6.2156,-6.2155,-6.2154,-6.2154,0,-6.1118,-6.1248,-6.1355,-6.1483,-6.1564,-6.1706,-6.1738,-6.1818,-6.1813,-6.1846,-6.2018,-6.2087,-6.2209,-6.2257,-6.2252,-6.2463,-6.2432,-6.2382,-6.2288,-6.2474,-6.2554,-6.2587,-6.2167,-6.2164,-6.2162,-6.216,0,0,-6.1392,-6.1525,-6.1565,-6.1623,-6.173,-6.1829,-6.1969,-6.2091,-6.2161,-6.2249,-6.2367,-6.2533,-6.2489,-6.2556,-6.2558,-6.2654,-6.2846,-6.2593,-6.2595,-6.2639,-6.3084,-6.3122,-6.316,-6.2826,-6.2832,-6.2837,-6.3077,0,-6.162,-6.1871,-6.1886,-6.2113,-6.2233,-6.2203,-6.2325,-6.2403,-6.2437,-6.2542,-6.2577,-6.2696,-6.2627,-6.2668,-6.2762,-6.2803,-6.2936,-6.2786,-6.2935,-6.2941,-6.2916,-6.3201,-6.3242,-6.3465,-6.3108,-6.3114,-6.3117,0,-6.1921,-6.2023,-6.2263,-6.2354,-6.2405,-6.2515,-6.2629,-6.273,-6.2817,-6.2835,-6.2912,-6.2901,-6.3043,-6.2944,-6.314,-6.3038,-6.31,-6.3129,-6.3138,-6.3153,-6.3041,-6.3226,-6.3536,-6.357,-6.3166,-6.3162,-6.3159,0,-6.2099,-6.2295,-6.2465,-6.2515,-6.2626,-6.2704,-6.2753,-6.2835,-6.2908,-6.3006,-6.3053,-6.3165,-6.3227,-6.3314,-6.3333,-6.3258,-6.3531,-6.3432,-6.3549,-6.3549,-6.3608,-6.3605,-6.3935,-6.3646,-6.3645,-6.3645,-6.3644,0,-6.2354,-6.2502,-6.2547,-6.2651,-6.2816,-6.2831,-6.2993,-6.3036,-6.3109,-6.3221,-6.3199,-6.3304,-6.3322,-6.343,-6.3445,-6.3607,-6.3634,-6.3652,-6.3655,-6.3656,-6.3654,-6.3697,-6.3682,-6.3654,-6.3652,-6.365,-6.3648,0,-6.258,-6.2616,-6.28,-6.289,-6.2916,-6.3034,-6.3111,-6.321,-6.3242,-6.3383,-6.3417,-6.3466,-6.3592,-6.362,-6.3768,-6.3778,-6.3971,-6.3957,-6.3943,-6.3942,-6.4059,-6.4048,-6.4429,-6.4481,-6.4157,-6.416,-6.4162,0,-6.2742,-6.2856,-6.296,-6.3034,-6.3088,-6.3208,-6.3283,-6.3301,-6.338,-6.3489,-6.3576,-6.37,-6.3801,-6.4004,-6.4051,-6.4165,-6.4155,-6.4281,-6.4172,-6.4169,-6.4159,-6.4153,-6.4165,-6.4302,-6.4305,-6.4308,-6.431,0,-6.3024,-6.3037,-6.3148,-6.3266,-6.3357,-6.345,-6.3538,-6.36,-6.363,-6.3719,-6.385,-6.3928,-6.4082,-6.4206,-6.4321,-6.4368,-6.4346,-6.4344,-6.4378,-6.438,-6.4368,-6.4378,-6.4002,-6.4336,-6.4333,-6.4331,-6.433,-6.4329,-6.3225,-6.3325,-6.3415,-6.354,-6.3609,-6.3692,-6.3791,-6.3837,-6.3947,-6.4076,-6.4078,-6.4221,-6.4306,-6.4458,-6.4513,-6.4624,-6.4585,-6.4632,-6.4645,-6.4657,-6.4669,-6.435,-6.4644,-6.4644,-6.4643,-6.4642,-6.4642,0,-6.3508,-6.3565,-6.3679,-6.3805,-6.3903,-6.3875,-6.3971,-6.4055,-6.4182,-6.4264,-6.4365,-6.4515,-6.4636,-6.4694,-6.4812,-6.489,-6.4882,-6.4921,-6.4916,-6.4928,-6.4696,-6.4656,-6.4925,-6.4925,-6.4925,-6.4925,-6.4925,-6.4925,-6.3667,-6.3837,-6.386,-6.4064,-6.4119,-6.4261,-6.4319,-6.4396,-6.4462,-6.4632,-6.4734,-6.4771,-6.4844,-6.4968,-6.5077,-6.5091,-6.5136,-6.5181,-6.5189,-6.4972,-6.4943,-6.4916,-6.4879,-6.519,-6.519,-6.5411,-6.5413,-6.5415]}]]